Terminal Aerodrome Forecast
Issued by NWS

Home | Current Version | Previous Version | Text Only | Print | Product List | Glossary On
Versions: 1 2 3 4 5 6 7 8 9 10 11 12 13 14 15 16 17 18 19 20 21 22 23 24
828
FTUS46 KSEW 191120
TAFSEA
TAF
KSEA 191120Z 1912/2018 18010KT P6SM VCSH SCT045 BKN070
     FM191300 18012KT P6SM -SHRA BKN045 BKN070
     FM192300 19012G20KT P6SM -SHRA BKN025 OVC040
     FM200300 19012G20KT P6SM -SHRA BKN012 OVC025=

USA.gov is the U.S. government's official web portal to all federal, state and local government web resources and services.